This is the latest recevied weather packets stored in our database for station/object YM7KGL-1. If no packets are shown the sender has not sent any weather packets the latest 1 day(s).
| Time | Temp. | Humidity | Pressure | Rain* | Wind** | Luminosity | Snow |
|---|---|---|---|---|---|---|---|
| 1777891020 | 21.11° C | 51% | 1005.1 hPa | - | - | - | - |
| 1777890351 | 21.11° C | 51% | 1005.2 hPa | - | - | - | - |
| 1777890120 | 21.11° C | 51% | 1005.2 hPa | - | - | - | - |
| 1777889264 | 21.11° C | 51% | 1005.3 hPa | - | - | - | - |
| 1777888363 | 21.11° C | 51% | 1005.1 hPa | - | - | - | - |
| 1777887463 | 20.56° C | 52% | 1005.2 hPa | - | - | - | - |
| 1777886603 | 20° C | 53% | 1005.2 hPa | - | - | - | - |
| 1777886562 | 20° C | 53% | 1005.2 hPa | - | - | - | - |
| 1777885677 | 19.44° C | 53% | 1005 hPa | - | - | - | - |
| 1777884776 | 18.33° C | 53% | 1005.3 hPa | - | - | - | - |
| 1777883875 | 17.78° C | 54% | 1005.3 hPa | - | - | - | - |
| 1777883322 | 17.22° C | 54% | 1005.4 hPa | - | - | - | - |
| 1777882975 | 17.22° C | 54% | 1005.4 hPa | - | - | - | - |
| 1777882345 | 16.67° C | 54% | 1005.6 hPa | - | - | - | - |
| 1777881445 | 16.11° C | 55% | 1005.6 hPa | - | - | - | - |
| 1777880544 | 14.44° C | 56% | 1005.5 hPa | - | - | - | - |
| 1777878985 | 13.33° C | 55% | 1005.3 hPa | - | - | - | - |
| 1777878085 | 13.33° C | 55% | 1005.3 hPa | - | - | - | - |
| 1777877184 | 13.33° C | 56% | 1005 hPa | - | - | - | - |
| 1777876284 | 12.78° C | 56% | 1004.8 hPa | - | - | - | - |
| 1777875398 | 12.78° C | 56% | 1005.2 hPa | - | - | - | - |
| 1777874497 | 12.22° C | 55% | 1005.3 hPa | - | - | - | - |
| 1777873597 | 12.22° C | 56% | 1005.4 hPa | - | - | - | - |
| 1777872931 | 12.22° C | 56% | 1005.3 hPa | - | - | - | - |
| 1777872697 | 12.22° C | 56% | 1005.3 hPa | - | - | - | - |
* Rain since midnight (hover to see other rain measurements)
** Current wind speed in m/s (hover to see current wind gust speed)